UPS1336 KSDF-KMCO

Flight info

Callsign UPS1336
Flight time 1h 29m
Altitude 37000
Route LOKRD1 BILET THRSR ZJAYX GRNCH5
Aircraft MD11/H-SDE1E2E3FGHIJ2J3J4J5M1RWXY/LB1D1

Departure

Time 2026-04-25 09:26
Airport Louisville Muhammad Ali International Airport (KSDF)

Arrival

Time 2026-04-25 10:56
Airport Orlando International Airport (KMCO)
Time Latitude Longitude Altitude Speed Heading
2026-04-25 09:04 38.17149 -85.72997 492 ft 0 kts 22°
2026-04-25 09:15 38.17148 -85.72998 492 ft 1 kts 22°
2026-04-25 09:15 38.17139 -85.73002 483 ft 1 kts 22°
2026-04-25 09:16 38.17131 -85.73007 492 ft 1 kts 22°
2026-04-25 09:16 38.17122 -85.73011 492 ft 1 kts 22°
2026-04-25 09:16 38.17114 -85.73015 483 ft 1 kts 34°
2026-04-25 09:16 38.17106 -85.73022 493 ft 1 kts 64°
2026-04-25 09:17 38.17103 -85.73040 493 ft 0 kts 108°
2026-04-25 09:20 38.17102 -85.73038 493 ft 1 kts 109°
2026-04-25 09:20 38.17088 -85.72998 490 ft 9 kts 115°
2026-04-25 09:20 38.17055 -85.72879 482 ft 19 kts 108°
2026-04-25 09:20 38.17028 -85.72735 482 ft 14 kts 80°
2026-04-25 09:21 38.17074 -85.72688 481 ft 6 kts
2026-04-25 09:21 38.17098 -85.72703 480 ft 5 kts 327°
2026-04-25 09:21 38.17148 -85.72744 491 ft 11 kts 328°
2026-04-25 09:21 38.17237 -85.72787 490 ft 16 kts 344°
2026-04-25 09:22 38.17360 -85.72829 482 ft 18 kts 345°
2026-04-25 09:22 38.17474 -85.72868 489 ft 15 kts 345°
2026-04-25 09:22 38.17559 -85.72897 486 ft 11 kts 346°
2026-04-25 09:22 38.17628 -85.72918 489 ft 10 kts 346°
2026-04-25 09:23 38.17693 -85.72938 487 ft 10 kts 347°
2026-04-25 09:23 38.17778 -85.72967 486 ft 15 kts 345°
2026-04-25 09:23 38.17894 -85.73007 486 ft 20 kts 345°
2026-04-25 09:23 38.18044 -85.73060 487 ft 24 kts 344°
2026-04-25 09:24 38.18195 -85.73113 489 ft 21 kts 344°
2026-04-25 09:24 38.18333 -85.73162 493 ft 20 kts 345°
2026-04-25 09:24 38.18457 -85.73204 489 ft 17 kts 345°
2026-04-25 09:24 38.18564 -85.73238 486 ft 15 kts 344°
2026-04-25 09:25 38.18657 -85.73273 486 ft 12 kts 354°
2026-04-25 09:25 38.18707 -85.73219 484 ft 10 kts 70°
2026-04-25 09:25 38.18705 -85.73136 481 ft 8 kts 126°
2026-04-25 09:25 38.18662 -85.73110 484 ft 6 kts 163°
2026-04-25 09:26 38.18590 -85.73085 490 ft 24 kts 165°
2026-04-25 09:26 38.18138 -85.72932 487 ft 109 kts 165°
2026-04-25 09:26 38.17175 -85.72601 525 ft 170 kts 165°
2026-04-25 09:26 38.16006 -85.72185 1173 ft 175 kts 164°
2026-04-25 09:27 38.14841 -85.71773 2092 ft 173 kts 165°
2026-04-25 09:27 38.13660 -85.71362 2840 ft 183 kts 165°
2026-04-25 09:27 38.12367 -85.70906 3386 ft 203 kts 165°
2026-04-25 09:27 38.10935 -85.70409 3893 ft 226 kts 165°
2026-04-25 09:28 38.09349 -85.69867 4517 ft 243 kts 163°
2026-04-25 09:28 38.07758 -85.68940 5183 ft 264 kts 146°
2026-04-25 09:28 38.06321 -85.67389 5934 ft 277 kts 135°
2026-04-25 09:28 38.04988 -85.65609 6990 ft 280 kts 133°
2026-04-25 09:29 38.03659 -85.63765 7966 ft 285 kts 132°
2026-04-25 09:29 38.02247 -85.61974 8892 ft 289 kts 142°
2026-04-25 09:29 38.00555 -85.60575 9823 ft 292 kts 152°
2026-04-25 09:29 37.98754 -85.59381 10745 ft 296 kts 155°
2026-04-25 09:30 37.96799 -85.58183 10916 ft 328 kts 156°
2026-04-25 09:30 37.94637 -85.56872 11067 ft 360 kts 156°
2026-04-25 09:30 37.92324 -85.55462 11617 ft 374 kts 156°
2026-04-25 09:30 37.89968 -85.54013 12502 ft 379 kts 156°
2026-04-25 09:31 37.87588 -85.52544 13357 ft 383 kts 156°
2026-04-25 09:31 37.85181 -85.51055 14185 ft 387 kts 156°
2026-04-25 09:31 37.82755 -85.49554 14983 ft 390 kts 156°
2026-04-25 09:31 37.80303 -85.48038 15743 ft 394 kts 157°
2026-04-25 09:32 37.77830 -85.46511 16479 ft 397 kts 157°
2026-04-25 09:32 37.75338 -85.44972 17176 ft 400 kts 157°
2026-04-25 09:32 37.72823 -85.43420 17835 ft 404 kts 158°
2026-04-25 09:32 37.70286 -85.41856 18494 ft 407 kts 158°
2026-04-25 09:33 37.67731 -85.40283 19106 ft 411 kts 158°
2026-04-25 09:33 37.65152 -85.38696 19693 ft 414 kts 158°
2026-04-25 09:33 37.62551 -85.37097 20271 ft 417 kts 158°
2026-04-25 09:33 37.59928 -85.35486 20820 ft 421 kts 158°
2026-04-25 09:34 37.57269 -85.33921 21325 ft 422 kts 162°
2026-04-25 09:34 37.54697 -85.32955 21835 ft 421 kts 171°
2026-04-25 09:34 37.51807 -85.32304 22381 ft 423 kts 175°
2026-04-25 09:34 37.48921 -85.31834 22932 ft 426 kts 176°
2026-04-25 09:35 37.45923 -85.31395 23506 ft 429 kts 176°
2026-04-25 09:35 37.42982 -85.30955 24052 ft 433 kts 176°
2026-04-25 09:35 37.39981 -85.30483 24603 ft 437 kts 176°
2026-04-25 09:35 37.36956 -85.29987 25168 ft 440 kts 176°
2026-04-25 09:36 37.33908 -85.29473 25725 ft 444 kts 176°
2026-04-25 09:36 37.30840 -85.28947 26278 ft 447 kts 176°
2026-04-25 09:36 37.27745 -85.28415 26805 ft 450 kts 176°
2026-04-25 09:36 37.24630 -85.27879 27312 ft 454 kts 176°
2026-04-25 09:37 37.21492 -85.27338 27813 ft 457 kts 176°
2026-04-25 09:37 37.18327 -85.26794 28320 ft 460 kts 176°
2026-04-25 09:37 37.15143 -85.26248 28803 ft 463 kts 176°
2026-04-25 09:37 37.11937 -85.25699 29264 ft 466 kts 176°
2026-04-25 09:38 37.08710 -85.25146 29711 ft 470 kts 176°
2026-04-25 09:38 37.05461 -85.24590 30122 ft 473 kts 176°
2026-04-25 09:38 37.02197 -85.24032 30563 ft 474 kts 177°
2026-04-25 09:38 36.98933 -85.23472 31092 ft 473 kts 177°
2026-04-25 09:39 36.95685 -85.22915 31636 ft 470 kts 177°
2026-04-25 09:39 36.92453 -85.22362 32185 ft 467 kts 177°
2026-04-25 09:39 36.89237 -85.21812 32703 ft 465 kts 177°
2026-04-25 09:40 36.82859 -85.20619 33685 ft 461 kts 176°
2026-04-25 09:40 36.79699 -85.19985 34127 ft 459 kts 176°
2026-04-25 09:40 36.76550 -85.19346 34537 ft 458 kts 176°
2026-04-25 09:40 36.73408 -85.18708 34887 ft 457 kts 176°
2026-04-25 09:41 36.70264 -85.18075 35162 ft 458 kts 176°
2026-04-25 09:41 36.67113 -85.17443 35456 ft 459 kts 176°
2026-04-25 09:41 36.63962 -85.16813 35738 ft 459 kts 176°
2026-04-25 09:41 36.60806 -85.16183 36027 ft 459 kts 176°
2026-04-25 09:42 36.57649 -85.15553 36273 ft 460 kts 176°
2026-04-25 09:42 36.54489 -85.14923 36517 ft 460 kts 176°
2026-04-25 09:42 36.51327 -85.14293 36779 ft 460 kts 176°
2026-04-25 09:42 36.48200 -85.13672 36882 ft 461 kts 176°
2026-04-25 09:43 36.41862 -85.12411 36913 ft 461 kts 176°
2026-04-25 09:43 36.35524 -85.11151 36903 ft 464 kts 176°
2026-04-25 09:44 36.29117 -85.09797 36917 ft 469 kts 174°
2026-04-25 09:44 36.22720 -85.08171 36914 ft 470 kts 173°
2026-04-25 09:45 36.16325 -85.06489 36929 ft 470 kts 173°
2026-04-25 09:45 36.09928 -85.04824 36921 ft 470 kts 173°
2026-04-25 09:46 36.03530 -85.03176 36930 ft 469 kts 173°
2026-04-25 09:46 35.97134 -85.01534 36934 ft 470 kts 173°
2026-04-25 09:47 35.90708 -84.99888 36934 ft 473 kts 173°
2026-04-25 09:47 35.84270 -84.98240 36913 ft 473 kts 173°
2026-04-25 09:48 35.77878 -84.96606 36917 ft 472 kts 173°
2026-04-25 09:48 35.71437 -84.94962 36916 ft 473 kts 173°
2026-04-25 09:49 35.64993 -84.93320 36898 ft 473 kts 173°
2026-04-25 09:49 35.58545 -84.91678 36890 ft 473 kts 173°
2026-04-25 09:50 35.52097 -84.90041 36882 ft 473 kts 173°
2026-04-25 09:50 35.45645 -84.88413 36877 ft 474 kts 173°
2026-04-25 09:51 35.39186 -84.86782 36881 ft 473 kts 172°
2026-04-25 09:51 35.32735 -84.85155 36887 ft 474 kts 173°
2026-04-25 09:52 35.26278 -84.83527 36883 ft 474 kts 172°
2026-04-25 09:52 35.19817 -84.81898 36881 ft 474 kts 172°
2026-04-25 09:53 35.13350 -84.80270 36879 ft 475 kts 172°
2026-04-25 09:53 35.06878 -84.78646 36886 ft 475 kts 172°
2026-04-25 09:54 35.01503 -84.77302 36894 ft 475 kts 172°
2026-04-25 09:54 34.95027 -84.75682 36898 ft 475 kts 172°
2026-04-25 09:55 34.88552 -84.74062 36905 ft 475 kts 172°
2026-04-25 09:55 34.82070 -84.72445 36912 ft 476 kts 172°
2026-04-25 09:56 34.75583 -84.70827 36915 ft 476 kts 172°
2026-04-25 09:56 34.69097 -84.69215 36922 ft 476 kts 172°
2026-04-25 09:57 34.62607 -84.67607 36911 ft 476 kts 172°
2026-04-25 09:57 34.56113 -84.66005 36917 ft 476 kts 172°
2026-04-25 09:58 34.49613 -84.64399 36908 ft 477 kts 172°
2026-04-25 09:58 34.43110 -84.62791 36908 ft 477 kts 172°
2026-04-25 09:59 34.36608 -84.61187 36923 ft 477 kts 172°
2026-04-25 09:59 34.30105 -84.59587 36908 ft 477 kts 172°
2026-04-25 10:00 34.23606 -84.57990 36919 ft 477 kts 172°
2026-04-25 10:00 34.17101 -84.56391 36921 ft 477 kts 172°
2026-04-25 10:01 34.10599 -84.54797 36915 ft 477 kts 172°
2026-04-25 10:01 34.04091 -84.53202 36909 ft 477 kts 172°
2026-04-25 10:02 33.97584 -84.51612 36912 ft 477 kts 172°
2026-04-25 10:02 33.91071 -84.50022 36889 ft 478 kts 171°
2026-04-25 10:03 33.84548 -84.48436 36886 ft 478 kts 171°
2026-04-25 10:03 33.78069 -84.46870 36897 ft 478 kts 171°
2026-04-25 10:04 33.71546 -84.45288 36901 ft 478 kts 171°
2026-04-25 10:04 33.65024 -84.43706 36908 ft 478 kts 171°
2026-04-25 10:05 33.58592 -84.41637 36911 ft 482 kts 160°
2026-04-25 10:05 33.52537 -84.38130 36914 ft 485 kts 154°
2026-04-25 10:06 33.46578 -84.34334 36928 ft 485 kts 155°
2026-04-25 10:06 33.40581 -84.30638 36940 ft 485 kts 155°
2026-04-25 10:07 33.34556 -84.27020 36941 ft 485 kts 156°
2026-04-25 10:07 33.28519 -84.23421 36909 ft 485 kts 156°
2026-04-25 10:08 33.22484 -84.19826 36916 ft 485 kts 156°
2026-04-25 10:08 33.16450 -84.16235 36918 ft 484 kts 155°
2026-04-25 10:09 33.10415 -84.12646 36920 ft 485 kts 156°
2026-04-25 10:09 33.04376 -84.09059 36920 ft 485 kts 155°
2026-04-25 10:10 32.98329 -84.05472 36918 ft 485 kts 155°
2026-04-25 10:10 32.92283 -84.01894 36911 ft 485 kts 155°
2026-04-25 10:11 32.86239 -83.98325 36918 ft 485 kts 155°
2026-04-25 10:11 32.80182 -83.94767 36907 ft 486 kts 155°
2026-04-25 10:12 32.74158 -83.91229 36906 ft 486 kts 155°
2026-04-25 10:13 32.65063 -83.85883 36916 ft 486 kts 155°
2026-04-25 10:13 32.58997 -83.82325 36910 ft 487 kts 155°
2026-04-25 10:14 32.52929 -83.78768 36928 ft 486 kts 155°
2026-04-25 10:14 32.46869 -83.75221 36929 ft 486 kts 155°
2026-04-25 10:15 32.40806 -83.71679 36911 ft 486 kts 155°
2026-04-25 10:15 32.34740 -83.68140 36927 ft 486 kts 155°
2026-04-25 10:16 32.28676 -83.64608 36928 ft 486 kts 155°
2026-04-25 10:16 32.22611 -83.61082 36927 ft 486 kts 155°
2026-04-25 10:17 32.16543 -83.57557 36918 ft 486 kts 155°
2026-04-25 10:17 32.10473 -83.54039 36927 ft 486 kts 155°
2026-04-25 10:18 32.04397 -83.50536 36928 ft 486 kts 155°
2026-04-25 10:18 31.98364 -83.47056 36933 ft 486 kts 155°
2026-04-25 10:19 31.92281 -83.43545 36935 ft 487 kts 155°
2026-04-25 10:19 31.86191 -83.40035 36943 ft 488 kts 155°
2026-04-25 10:20 31.80093 -83.36525 36943 ft 488 kts 155°
2026-04-25 10:20 31.73990 -83.33019 36943 ft 489 kts 155°
2026-04-25 10:21 31.67876 -83.29512 36944 ft 489 kts 155°
2026-04-25 10:21 31.61750 -83.26015 36944 ft 490 kts 155°
2026-04-25 10:22 31.55598 -83.22549 36943 ft 491 kts 155°
2026-04-25 10:22 31.49439 -83.19092 36945 ft 491 kts 155°
2026-04-25 10:23 31.43277 -83.15626 36952 ft 492 kts 155°
2026-04-25 10:23 31.37103 -83.12161 36952 ft 492 kts 155°
2026-04-25 10:24 31.30923 -83.08698 36953 ft 492 kts 155°
2026-04-25 10:24 31.24745 -83.05240 36952 ft 492 kts 155°
2026-04-25 10:25 31.18557 -83.01782 36953 ft 493 kts 155°
2026-04-25 10:25 31.12409 -82.98350 36952 ft 494 kts 155°
2026-04-25 10:26 31.06203 -82.94889 36952 ft 494 kts 155°
2026-04-25 10:26 31.00001 -82.91439 36952 ft 494 kts 155°
2026-04-25 10:27 30.93791 -82.87989 36953 ft 495 kts 155°
2026-04-25 10:27 30.87631 -82.84419 36951 ft 495 kts 149°
2026-04-25 10:28 30.82028 -82.79757 36953 ft 495 kts 141°
2026-04-25 10:28 30.76687 -82.74699 36958 ft 495 kts 141°
2026-04-25 10:29 30.71316 -82.69672 36955 ft 495 kts 141°
2026-04-25 10:29 30.65907 -82.64721 36954 ft 495 kts 142°
2026-04-25 10:30 30.60480 -82.59795 36952 ft 496 kts 142°
2026-04-25 10:30 30.55048 -82.54874 36962 ft 495 kts 142°
2026-04-25 10:31 30.49620 -82.49962 36962 ft 494 kts 142°
2026-04-25 10:31 30.44203 -82.45059 36961 ft 494 kts 142°
2026-04-25 10:32 30.38790 -82.40166 36964 ft 493 kts 142°
2026-04-25 10:32 30.33378 -82.35286 36961 ft 494 kts 142°
2026-04-25 10:33 30.27996 -82.30438 36961 ft 493 kts 142°
2026-04-25 10:33 30.22572 -82.25635 36959 ft 486 kts 146°
2026-04-25 10:34 30.16509 -82.22350 36954 ft 482 kts 167°
2026-04-25 10:34 30.13256 -82.21604 36777 ft 472 kts 173°
2026-04-25 10:34 30.10031 -82.21145 36478 ft 464 kts 175°
2026-04-25 10:34 30.06820 -82.20731 35971 ft 464 kts 174°
2026-04-25 10:35 30.03617 -82.20267 35366 ft 464 kts 173°
2026-04-25 10:35 30.00414 -82.19733 34769 ft 467 kts 172°
2026-04-25 10:35 29.97196 -82.19145 34177 ft 470 kts 172°
2026-04-25 10:35 29.93960 -82.18518 33582 ft 474 kts 171°
2026-04-25 10:36 29.90697 -82.17868 32970 ft 476 kts 171°
2026-04-25 10:36 29.87420 -82.17209 32331 ft 478 kts 171°
2026-04-25 10:36 29.84136 -82.16549 31689 ft 480 kts 171°
2026-04-25 10:36 29.80842 -82.15888 31050 ft 481 kts 171°
2026-04-25 10:37 29.77539 -82.15227 30409 ft 482 kts 171°
2026-04-25 10:37 29.74234 -82.14567 29772 ft 482 kts 171°
2026-04-25 10:37 29.70923 -82.13908 29122 ft 483 kts 172°
2026-04-25 10:37 29.67604 -82.13248 28487 ft 485 kts 172°
2026-04-25 10:38 29.64273 -82.12586 27850 ft 486 kts 172°
2026-04-25 10:38 29.60935 -82.11923 27177 ft 488 kts 172°
2026-04-25 10:38 29.57583 -82.11257 26497 ft 490 kts 172°
2026-04-25 10:38 29.54223 -82.10590 25828 ft 489 kts 172°
2026-04-25 10:39 29.50883 -82.09927 25255 ft 484 kts 172°
2026-04-25 10:39 29.47614 -82.09278 24562 ft 481 kts 172°
2026-04-25 10:39 29.44344 -82.08629 23824 ft 473 kts 172°
2026-04-25 10:39 29.41116 -82.07988 23123 ft 468 kts 172°
2026-04-25 10:40 29.37934 -82.07357 22549 ft 462 kts 172°
2026-04-25 10:40 29.34791 -82.06732 22220 ft 451 kts 172°
2026-04-25 10:40 29.31769 -82.06096 21801 ft 433 kts 168°
2026-04-25 10:40 29.29835 -82.05416 21381 ft 428 kts 160°
2026-04-25 10:41 29.26318 -82.03507 20458 ft 419 kts 153°
2026-04-25 10:41 29.23796 -82.01867 19783 ft 414 kts 151°
2026-04-25 10:41 29.21322 -82.00206 19119 ft 410 kts 151°
2026-04-25 10:41 29.18870 -81.98571 18476 ft 406 kts 151°
2026-04-25 10:42 29.16425 -81.96967 17812 ft 403 kts 152°
2026-04-25 10:42 29.13996 -81.95396 17168 ft 399 kts 152°
2026-04-25 10:42 29.11583 -81.93851 16529 ft 395 kts 152°
2026-04-25 10:42 29.09194 -81.92330 15892 ft 391 kts 152°
2026-04-25 10:43 29.06880 -81.90739 15287 ft 388 kts 146°
2026-04-25 10:43 29.04788 -81.88825 14682 ft 383 kts 139°
2026-04-25 10:43 29.02841 -81.86771 14075 ft 378 kts 137°
2026-04-25 10:43 29.00965 -81.84700 13502 ft 373 kts 137°
2026-04-25 10:44 28.99118 -81.82647 12922 ft 368 kts 136°
2026-04-25 10:44 28.97401 -81.80527 12442 ft 360 kts 130°
2026-04-25 10:44 28.95855 -81.78324 12049 ft 354 kts 128°
2026-04-25 10:44 28.94369 -81.76095 11591 ft 352 kts 128°
2026-04-25 10:45 28.93389 -81.74613 11101 ft 354 kts 127°
2026-04-25 10:45 28.91912 -81.72377 10594 ft 349 kts 127°
2026-04-25 10:45 28.90479 -81.70215 10377 ft 334 kts 127°
2026-04-25 10:45 28.89125 -81.68180 10242 ft 313 kts 127°
2026-04-25 10:46 28.87833 -81.66247 10032 ft 302 kts 127°
2026-04-25 10:46 28.86555 -81.64344 9502 ft 303 kts 127°
2026-04-25 10:46 28.85271 -81.62435 8973 ft 301 kts 127°
2026-04-25 10:46 28.84015 -81.60565 8452 ft 293 kts 127°
2026-04-25 10:47 28.82795 -81.58752 8066 ft 288 kts 127°
2026-04-25 10:47 28.81575 -81.56947 7687 ft 285 kts 127°
2026-04-25 10:47 28.80374 -81.55165 7312 ft 282 kts 127°
2026-04-25 10:47 28.79206 -81.53411 7087 ft 270 kts 125°
2026-04-25 10:48 28.78164 -81.51676 6990 ft 264 kts 123°
2026-04-25 10:48 28.77168 -81.49925 6923 ft 263 kts 122°
2026-04-25 10:48 28.76181 -81.48169 6548 ft 261 kts 122°
2026-04-25 10:48 28.75206 -81.46437 6214 ft 257 kts 122°
2026-04-25 10:49 28.74275 -81.44782 6056 ft 240 kts 122°
2026-04-25 10:49 28.73561 -81.43096 5985 ft 236 kts 106°
2026-04-25 10:49 28.73183 -81.41282 5986 ft 236 kts 100°
2026-04-25 10:49 28.72878 -81.39449 5984 ft 236 kts 99°
2026-04-25 10:50 28.72585 -81.37605 5819 ft 236 kts 99°
2026-04-25 10:50 28.72269 -81.35778 5493 ft 234 kts 105°
2026-04-25 10:50 28.71570 -81.34114 5114 ft 234 kts 128°
2026-04-25 10:50 28.70394 -81.32920 4813 ft 228 kts 151°
2026-04-25 10:51 28.68861 -81.32392 4520 ft 229 kts 177°
2026-04-25 10:51 28.67296 -81.32441 4226 ft 225 kts 184°
2026-04-25 10:51 28.65755 -81.32572 4068 ft 223 kts 185°
2026-04-25 10:51 28.64207 -81.32712 3843 ft 223 kts 185°
2026-04-25 10:52 28.62672 -81.32880 3601 ft 221 kts 185°
2026-04-25 10:52 28.61173 -81.32984 3450 ft 201 kts 182°
2026-04-25 10:52 28.59843 -81.33015 3117 ft 185 kts 179°
2026-04-25 10:52 28.58577 -81.32972 2656 ft 179 kts 178°
2026-04-25 10:53 28.57352 -81.32908 2103 ft 172 kts 177°
2026-04-25 10:53 28.56201 -81.32857 1601 ft 161 kts 177°
2026-04-25 10:53 28.55095 -81.32816 1217 ft 159 kts 178°
2026-04-25 10:53 28.53990 -81.32810 993 ft 159 kts 180°
2026-04-25 10:54 28.52882 -81.32827 886 ft 159 kts 180°
2026-04-25 10:54 28.52150 -81.32836 850 ft 159 kts 179°
2026-04-25 10:54 28.50669 -81.32796 789 ft 159 kts 176°
2026-04-25 10:54 28.49562 -81.32745 691 ft 159 kts 178°
2026-04-25 10:55 28.48455 -81.32732 555 ft 159 kts 179°
2026-04-25 10:55 28.47353 -81.32725 423 ft 158 kts 179°
2026-04-25 10:55 28.46256 -81.32712 326 ft 157 kts 179°
2026-04-25 10:55 28.45166 -81.32695 199 ft 157 kts 179°
2026-04-25 10:56 28.44110 -81.32689 107 ft 135 kts 179°
2026-04-25 10:56 28.43373 -81.32682 109 ft 77 kts 179°
2026-04-25 10:56 28.42967 -81.32677 108 ft 37 kts 180°
2026-04-25 10:56 28.42751 -81.32675 107 ft 21 kts 179°
2026-04-25 10:57 28.42658 -81.32711 105 ft 12 kts 242°
2026-04-25 10:57 28.42651 -81.32793 106 ft 9 kts 271°
2026-04-25 10:57 28.42649 -81.32857 106 ft 8 kts 268°
2026-04-25 10:57 28.42658 -81.32909 107 ft 4 kts 306°
2026-04-25 10:58 28.42675 -81.32916 105 ft 2 kts 348°
2026-04-25 10:58 28.42712 -81.32921 105 ft 8 kts 355°
2026-04-25 10:58 28.42791 -81.32923 105 ft 14 kts 359°
2026-04-25 10:58 28.42908 -81.32923 104 ft 19 kts
2026-04-25 10:59 28.43037 -81.32924 106 ft 18 kts 359°
2026-04-25 10:59 28.43159 -81.32926 106 ft 17 kts 359°
2026-04-25 10:59 28.43276 -81.32929 106 ft 16 kts 359°
2026-04-25 10:59 28.43387 -81.32929 106 ft 16 kts 359°
2026-04-25 11:00 28.43492 -81.32930 106 ft 15 kts 360°
2026-04-25 11:00 28.43592 -81.32930 106 ft 14 kts 359°
2026-04-25 11:00 28.43689 -81.32934 105 ft 14 kts 357°
2026-04-25 11:00 28.43732 -81.32962 105 ft 2 kts 291°
2026-04-25 11:01 28.43733 -81.32993 105 ft 7 kts 272°
2026-04-25 11:01 28.43734 -81.33026 105 ft 0 kts 270°